« Back
NWS Peachtree City, Ga » Text Product » GA Regional Weather Roundup


Printer-friendly Version
Current Version              Previous Versions:   1  2  3  4  5  6  7  8  9  

Regional Weather Roundup

908
ASUS42 KFFC 200103
RWRGA
WEATHER ROUNDUP FOR GEORGIA
NATIONAL WEATHER SERVICE PEACHTREE CITY GA
900 PM EDT SAT APR 19 2014

NOTE: "FAIR" INDICATES FEW OR NO CLOUDS BELOW 12,000 FEET WITH NO
SIGNIFICANT WEATHER AND/OR OBSTRUCTIONS TO VISIBILITY.

* = USE WITH CAUTION. THE STATIONS MARKED WITH AN ASTERISK MAY NOT
REPORT WEATHER SUCH AS PRECIPITATION, FOG, OR THUNDER AND ARE NOT
QUALITY CONTROLLED BY NWS.

THE REMARK "TC" DENOTES TEMPERATURE READING IN DEGREES CELSIUS.

GAZ001>058-200200-
NORTH GEORGIA

CITY           SKY/WX    TMP DP  RH WIND       PRES   REMARKS
ATLANTA        CLOUDY    57  49  74 NE22      30.16R
ATHENS         CLOUDY    54  45  71 NE13G25   30.16R
CHAMBLEE       CLOUDY    57  44  62 NE10G21   30.16R
PEACHTREE CITY CLOUDY    56  51  84 NE12G22   30.16R
ROME           CLOUDY    63  47  55 NE3       30.14R
WEST ATLANTA   CLOUDY    56  52  86 NE7       30.17R
GAINESVILLE    CLOUDY    56  39  53 NE16G25   30.18S
CARTERSVILLE   CLOUDY    59  55  87 SE3       30.17R


CITY           SKY/WX    TMP DP  RH WIND       PRES   REMARKS
DALTON*        CLOUDY    63  46  55 NE3       30.16R
LAWRENCEVILLE* CLOUDY    55  39  54 NE12G20   30.16
$$

GAZ059>098-102>109-200200-
CENTRAL GEORGIA

CITY           SKY/WX    TMP DP  RH WIND       PRES   REMARKS
AUGUSTA-BUSH   LGT RAIN  54  51  90 NE13      30.12R FOG
AUGUSTA-DANIEL LGT RAIN  54  52  93 N10G17    30.13R
COLUMBUS       LGT RAIN  59  52  77 NE10G20   30.11R
MACON          CLOUDY    54  53  97 NE12      30.11R
ROBINS AFB     LGT RAIN  55  52  88 N8        30.10R


CITY           SKY/WX    TMP DP  RH WIND       PRES   REMARKS
LAGRANGE*      CLOUDY    59  55  84 NE3       30.13R
SYLVANIA*      CLOUDY    57  55  90 NE10G18   30.06S
MILLEDGEVILLE* DRIZZLE   55  55 100 NE9       30.13R
$$

GAZ099>101-110>166-200200-
SOUTH GEORGIA

CITY           SKY/WX    TMP DP  RH WIND       PRES   REMARKS
SAVANNAH       DRIZZLE   57  54  89 N5        30.06R
VALDOSTA       MOCLDY    61  55  81 N13       30.01S
ALMA           CLOUDY    58  54  86 N9        30.02R
ST SIMONS      LGT RAIN  60  59  96 N14G20    29.98R
FT STEWART     HVY RAIN  56  56 100 NE20G29   29.99F FOG
ALBANY         CLOUDY    59  54  83 NE9       30.09R
HUNTER AFB     TSTM      57  56  98 CALM      30.05R FOG
MOODY AFB      CLOUDY    58  57  99 N13       30.02R
BRUNSWICK      CLOUDY    61  59  94 N7        29.99R


CITY           SKY/WX    TMP DP  RH WIND       PRES   REMARKS
BAINBRIDGE*    CLOUDY    63  57  82 N9        30.07R
MOULTRIE*      CLOUDY    59  57  94 N9G16     30.05R
VIDALIA*       RAIN      57  55  94 N10       30.05S
DOUGLAS*       CLOUDY    57  55  94 N12G18    30.04S
$$



USA.gov is the U.S. government's official web portal to all federal, state and local government web resources and services.